SAPPHIRE

Last updated on Wed Sep 09 2026 00:03:45 GMT+0000 (Coordinated Universal Time)

1 39088U 13009C 26251.61004594 .00000048 00000+0 31920-4 0 9996 2 39088 98.4309 69.1123 0011289 6.9533 353.1808 14.35258911708543
UTC large
Height (km)
Speed (km/s)
/
Latitude / Longitude
Inclination (degrees)
Orbital Period (minutes)
Azimuth
Elevation
Range (km)
Doppler Factor

Next 0 passes for location: London (51.5072 / 0.1276)

No passes found over London.
SAPPHIRE